Tracking 31027 objects as of 19-Jul-2025
HD Live streaming from Space Station
objects crossing your sky now

STARLINK-30602

Track STARLINK-30602 now!
10-day predictions
STARLINK-30602 is classified as:


NORAD ID: 58081
Int'l Code: 2023-160G
Perigee: 565.1 km
Apogee: 567.3 km
Inclination: 43.0 °
Period: 95.8 minutes
Semi major axis: 6937 km
RCS: Unknown
Launch date: October 18, 2023
Source: United States (US)
Launch site: AIR FORCE EASTERN TEST RANGE (AFETR)
Your satellite tracking list
BELINTERSAT 1
Track 1 satellite(s)




NASA's NSSDC Master Catalog

Two Line Element Set (TLE):
1 58081U 23160G   25199.50325861 -.00001556  00000-0 -10009-3 0  9992
2 58081  43.0073 272.4547 0001646 268.3342  91.7312 15.02542816 97718
Source of the keplerian elements: AFSPC